COSMOS 2251 DEB, 34139

Orbit data source: Space-Track

COSMOS 2251 DEB, 34139 is space debris in LEO originally from a launch on Wed, 16 Jun 1993 UTC launched from the Plesetsk Missile And Space Complex (PKMTR). The debris from Iridium 33, an American commercial communications satellite, has been tracked extensively since its accidental collision with the defunct Russian satellite Cosmos 2251 in 2009. This event, occurring at high speed in low Earth orbit (LEO), generated thousands of pieces of space debris, significantly increasing the risk of further collisions. The Iridium 33 debris cloud has impacted space traffic management and orbital debris mitigation strategies, making it a subject of ongoing study in space situational awareness.

Loading next visibility...
Identifier
34139, 1993-036LL
Orbit
LEO
Country
Flag of CISCIS
Related business
Manufacturer
Unknown
Mission
Spacecraft
Bus & Motor
Unknown
Mass
Unknown
Launch date (UTC)
1993-06-16 (33 years ago)
Launch vehicle
Unknown
Launch site
Plesetsk Missile And Space Complex (PKMTR)
Object type
Payload
Rocket body
Debris
Shape & HBR
Unknown shape, 0.1 m
Radar Cross Section
Medium (>0.1 m² and <1 m²)

Expand to show TLE details & history
Last TLE update: 22 hours ago

TLE from 22 hours ago
0 COSMOS 2251 DEB
1 34139U 93036LL  26262.94306880  .00002977  00000-0  58679-3 0  9990
2 34139  74.0278  76.3256 0041180  80.7807  78.5771 14.62427930922560
Epoch: 2026-09-19T22:38Z
TLE epoch observation values (Epoch: 2026-09-19T22:38:01.144Z)
Latitude
19.37465°
Longitude
-87.76899°
Altitude
681.872 km
Speed
7.521 km/s
True Right ascension
16h 42m 19s
True Declination
19° 15' 58"
Sunlit
Object was in daylight at epoch
Visualization orbit readout
Latitude
Unknown
Longitude
Unknown
Altitude
Unknown
Speed
Unknown
Apparent Right ascension
Unknown
Apparent Declination
Unknown
Sunlit
N/A
Visualization observer readout
Local Sidereal Time
13:23:35
Azimuth
Unknown
Elevation
Unknown
Doppler factor
Unknown
Orbital elements
Apogee altitude
712.018 km
Perigee altitude
653.863 km
Semi-major axis
7,061.078 km
Eccentricity
0.00412
Inclination
74.0278°
RAAN
76.3256°
Arg. of periapsis
80.7807°
True anomaly
79.04011°
Mean anomaly
78.5771°
Eccentric anomaly
78.80856°
Mean motion
3.65794 °/min
Orbital period
98.42 mins
BSTAR
0.00058679

Documentation

Showing up to 5 results
|